Вернуться в каталог

ONEWEB-0709

АктивенСвязьPO
NORAD 55172·PAYLOAD·🇬🇧 United Kingdom

Запущен Jan 10, 2023 с Cape Canaveral Space Force Station

Loading…

Ближайшие Пролёты (ближайшие 24 часа)

TLE

СвежийSource: CelesTrak SupGP

Эпоха: Sep 14, 2026, 22:49 UTC

1 55172C 23004AJ  26257.95118056 -.00002564  00000+0 -72443-2 0  2573
2 55172  87.8956   3.2301 0001057  81.3633  21.7963 13.11414411    11

Отслеживайте ONEWEB-0709 в реальном времени с AllMySat

Download on the App Store